DW7955 Weather Reports


Display with metric or nautical units.
time (UTC)temp
F
wind
direction
speed
MPH
gust
MPH
rain 1hr
in
rain 24hr
in
rain mn
in
humidity
%
barometer
mb
20260903061537 72 30 1.0 4.0 0.00 0.00 0.00 32 1003.2
20260903060029 72 238 0.0 2.0 0.00 0.00 0.00 31 1002.9
20260903054524 74 238 0.0 2.0 0.00 0.00 0.00 28 1002.8
20260903053023 75 236 0.0 3.0 0.00 0.00 0.00 28 1002.7
20260903051523 74 196 0.0 3.0 0.00 0.00 0.00 27 1002.7
20260903050023 73 33 0.0 0.0 0.00 0.00 0.00 28 1002.6
20260903044522 73 33 0.0 0.0 0.00 0.00 0.00 28 1002.5
20260903043021 73 33 0.0 0.0 0.00 0.00 0.00 27 1002.4
20260903041526 73 35 0.0 1.0 0.00 0.00 0.00 28 1002.3
20260903040021 75 197 0.0 0.0 0.00 0.00 0.00 27 1002.3
20260903034521 76 197 0.0 1.0 0.00 0.00 0.00 26 1002.3
20260903033019 78 197 0.0 1.0 0.00 0.00 0.00 24 1002.1
20260903031523 78 187 1.0 4.0 0.00 0.00 0.00 25 1002.0
20260903030029 79 211 1.0 4.0 0.00 0.00 0.00 24 1001.7
20260903024518 80 219 0.0 3.0 0.00 0.00 0.00 26 1001.4
20260903023018 82 219 0.0 7.0 0.00 0.00 0.00 26 1001.2
20260903021517 83 238 1.0 6.0 0.00 0.00 0.00 25 1000.9
20260903020017 84 49 2.0 4.0 0.00 0.00 0.00 22 1000.8
20260903014516 85 50 5.0 7.0 0.00 0.00 0.00 21 1000.6
20260903013027 85 45 4.0 7.0 0.00 0.00 0.00 21 1000.6
20260903011516 86 41 4.0 11.0 0.00 0.00 0.00 20 1000.7
20260903010027 87 57 6.0 10.0 0.00 0.00 0.00 19 1000.8
20260903004513 88 44 3.0 9.0 0.00 0.00 0.00 19 1000.9
20260903003015 89 70 4.0 10.0 0.00 0.00 0.00 18 1000.7
20260903001513 90 58 5.0 10.0 0.00 0.00 0.00 17 1000.8
20260903000012 91 63 6.0 10.0 0.00 0.00 0.00 17 1000.8
20260902234519 91 72 4.0 15.0 0.00 0.00 0.00 17 1000.8
20260902233010 91 90 4.0 15.0 0.00 0.00 0.00 17 1000.9
20260902231508 91 20 6.0 13.0 0.00 0.00 0.00 17 1001.2
20260902230006 91 57 7.0 11.0 0.00 0.00 0.00 17 1001.4
20260902224505 91 36 4.0 14.0 0.00 0.00 0.00 17 1001.5
20260902223002 90 33 4.0 11.0 0.00 0.00 0.00 18 1001.7
20260902221501 90 70 1.0 9.0 0.00 0.00 0.00 18 1001.7
20260902214602 89 130 7.0 15.0 0.00 0.00 0.00 18 1002.1
20260902213056 91 149 3.0 7.0 0.00 0.00 0.00 18 1002.3
20260902211556 90 132 4.0 13.0 0.00 0.00 0.00 19 1002.4
20260902210052 89 138 1.0 12.0 0.00 0.00 0.00 19 1002.7
20260902204551 90 144 8.0 14.0 0.00 0.00 0.00 20 1003.1
20260902203048 90 186 7.0 13.0 0.00 0.00 0.00 20 1003.2
20260902201554 89 138 4.0 10.0 0.00 0.00 0.00 20 1003.5
20260902200044 88 145 7.0 13.0 0.00 0.00 0.00 21 1003.6
20260902194543 88 167 10.0 14.0 0.00 0.00 0.00 21 1003.8
20260902193045 89 163 7.0 13.0 0.00 0.00 0.00 21 1004.1
20260902191540 89 138 2.0 9.0 0.00 0.00 0.00 20 1004.3
20260902190038 88 198 7.0 16.0 0.00 0.00 0.00 21 1004.7
20260902184535 88 300 5.0 9.0 0.00 0.00 0.00 20 1004.8
20260902183038 88 202 5.0 9.0 0.00 0.00 0.00 21 1005.0
20260902181531 87 211 5.0 10.0 0.00 0.00 0.00 21 1005.3
20260902180029 87 109 4.0 8.0 0.00 0.00 0.00 21 1005.5
20260902174526 86 255 3.0 11.0 0.00 0.00 0.00 23 1005.9
20260902173025 85 256 2.0 12.0 0.00 0.00 0.00 24 1006.2
20260902171523 85 244 8.0 17.0 0.00 0.00 0.00 23 1006.5
20260902170022 85 194 7.0 14.0 0.00 0.00 0.00 23 1006.8
20260902164518 84 307 2.0 11.0 0.00 0.00 0.00 24 1006.9
20260902163016 84 300 7.0 15.0 0.00 0.00 0.00 24 1007.0
20260902161512 83 320 3.0 15.0 0.00 0.00 0.00 25 1007.3
20260902160013 82 293 5.0 18.0 0.00 0.00 0.00 25 1007.5
20260902154507 82 236 3.0 8.0 0.00 0.00 0.00 26 1007.6
20260902153014 80 223 3.0 14.0 0.00 0.00 0.00 27 1007.6
20260902151601 80 331 2.0 11.0 0.00 0.00 0.00 28 1007.8
20260902150057 78 285 2.0 8.0 0.00 0.00 0.00 30 1007.9
20260902144553 76 240 0.0 3.0 0.00 0.00 0.00 35 1008.1
20260902143048 74 246 3.0 7.0 0.00 0.00 0.00 36 1008.2
20260902141544 70 235 1.0 5.0 0.00 0.00 0.00 43 1008.0
20260902140041 68 232 0.0 3.0 0.00 0.00 0.00 47 1008.2
20260902134549 67 196 1.0 4.0 0.00 0.00 0.00 47 1008.1
20260902133039 66 319 0.0 2.0 0.00 0.00 0.00 49 1008.0
20260902131543 63 319 0.0 3.0 0.00 0.00 0.00 52 1007.9
20260902130040 62 272 0.0 1.0 0.00 0.00 0.00 53 1007.7
20260902124533 62 271 0.0 2.0 0.00 0.00 0.00 53 1007.5
20260902123034 62 271 0.0 2.0 0.00 0.00 0.00 53 1007.3
20260902121530 63 277 0.0 2.0 0.00 0.00 0.00 53 1007.2
20260902120028 63 230 0.0 3.0 0.00 0.00 0.00 52 1007.1
20260902114529 63 327 0.0 4.0 0.00 0.00 0.00 53 1006.9
20260902113025 64 277 0.0 2.0 0.00 0.00 0.00 53 1006.8
20260902111523 64 305 1.0 8.0 0.00 0.00 0.00 53 1006.6
20260902110036 62 302 0.0 3.0 0.00 0.00 0.00 59 1006.5
20260902104521 61 283 0.0 2.0 0.00 0.00 0.00 62 1006.5
20260902103020 61 287 0.0 2.0 0.00 0.00 0.00 63 1006.5
20260902101520 62 235 0.0 0.0 0.00 0.00 0.00 63 1006.5
20260902100018 62 235 0.0 2.0 0.00 0.00 0.00 64 1006.4
20260902094522 62 233 0.0 3.0 0.00 0.00 0.00 67 1006.5
20260902093028 61 194 0.0 1.0 0.00 0.00 0.00 73 1006.3
20260902091514 61 194 0.0 0.0 0.00 0.00 0.00 72 1006.4
20260902090011 62 194 0.0 3.0 0.00 0.00 0.00 71 1006.5
20260902084518 62 194 0.0 0.0 0.00 0.00 0.00 72 1006.4
20260902083008 63 194 0.0 0.0 0.00 0.00 0.00 72 1006.4
20260902081506 64 194 0.0 0.0 0.00 0.00 0.00 70 1006.4
20260902080004 64 194 0.0 2.0 0.00 0.00 0.00 69 1006.7
20260902074503 65 346 0.0 0.0 0.00 0.00 0.00 69 1006.6
20260902073103 66 346 0.0 0.0 0.00 0.00 0.00 67 1006.6
20260902071557 67 346 0.0 2.0 0.00 0.00 0.00 65 1006.6
20260902070054 68 346 0.0 4.0 0.00 0.00 0.00 63 1006.4
20260902064554 68 347 4.0 9.0 0.00 0.00 0.00 63 1006.2
20260902063050 68 1 4.0 8.0 0.00 0.00 0.00 61 1006.2